El Dorado, AR

8:07 AM CST on February 25, 2018 (GMT -0600)
South Arkansas Regional At Goodwin

Weather History for KELD - June, 2013

Change the Weather History Date:

Saturday, June 22, 2013

  Actual Average Record
Temperature  
Mean Temperature 81 °F 80 °F  
Max Temperature 91 °F 90 °F 106 °F (1936)
Min Temperature 71 °F 69 °F 54 °F (1961)
Degree Days  
Heating Degree Days 0 0  
Month to date heating degree days 0 0  
Since 1 June heating degree days 0 0  
Since 1 July heating degree days 2712 2673  
Cooling Degree Days 16 15  
Month to date cooling degree days 277 275  
Year to date cooling degree days 555 586  
Since 1 June cooling degree days 277 275  
Growing Degree Days 32 (Base 50)    
Moisture  
Dew Point 72 °F    
Average Humidity 75    
Maximum Humidity 100    
Minimum Humidity 50    
Precipitation  
Precipitation 0.00 in 0.17 in 1.88 in (2017)
Month to date precipitation 4.10 3.54  
Year to date precipitation 21.19 26.52  
Snow  
Snow 0.00 in - - ()
Month to date snowfall 0.0  
Since 1 June snowfall 0.0  
Since 1 July snowfall 0.1  
Snow Depth 0.00 in    
Sea Level Pressure  
Sea Level Pressure 30.04 in    
Wind  
Wind Speed 4 mph (SE)    
Max Wind Speed 9 mph    
Max Gust Speed 15 mph    
Visibility 10 miles    
Events      
T = Trace of Precipitation, MM = Missing Value Source: NWS Daily Summary

Daily Weather History Graph

Daily Weather History Graph

Search for Another Location

Airport or City:

Trip Planner

Search our weather history database for the weather conditions in past years. The results will help you decide how hot, cold, wet, or windy it might be!

Date:

Astronomy

Jun. 22, 2013 Rise Set
Actual Time 6:02 AM CDT 8:23 PM CDT
Civil Twilight 5:33 AM CDT 8:52 PM CDT
Nautical Twilight 4:58 AM CDT 9:28 PM CDT
Astronomical Twilight 4:19 AM CDT 10:06 PM CDT
Moon 7:42 PM CDT (6/22) 5:12 AM CDT (6/22)
Length of Visible Light 15h 18m
Length of Day
14h 21m
Waxing Gibbous, 99% of the Moon is Illuminated
Jun 22
Waxing Gibbous
Jun 23
Full
Jun 29
Last Quarter
Jul 8
New
Jul 15
First Quarter

Hourly Weather History & Observations

Time (CDT) Temp. Heat Index Dew Point Humidity Pressure Visibility Wind Dir Wind Speed Gust Speed Precip Events Conditions
12:53 AM 75.0 °F - 71.1 °F 87% 30.06 in 10.0 mi Calm Calm - N/A   Clear
1:53 AM 73.9 °F - 71.1 °F 91% 30.05 in 10.0 mi Calm Calm - N/A   Clear
2:53 AM 73.0 °F - 71.1 °F 93% 30.05 in 10.0 mi Calm Calm - N/A   Clear
3:53 AM 72.0 °F - 71.1 °F 97% 30.04 in 9.0 mi Calm Calm - N/A   Clear
4:53 AM 72.0 °F - 70.0 °F 93% 30.04 in 8.0 mi Calm Calm - N/A   Clear
5:53 AM 72.0 °F - 71.1 °F 97% 30.05 in 7.0 mi Calm Calm - N/A   Clear
6:53 AM 73.0 °F - 72.0 °F 96% 30.05 in 5.0 mi SSW 3.5 mph - N/A   Clear
7:53 AM 77.0 °F - 73.0 °F 88% 30.06 in 9.0 mi South 3.5 mph - N/A   Clear
8:53 AM 81.0 °F 85.8 °F 73.0 °F 77% 30.09 in 10.0 mi SE 6.9 mph - N/A   Clear
9:53 AM 82.9 °F 88.8 °F 73.0 °F 72% 30.10 in 10.0 mi SW 4.6 mph - N/A   Clear
10:53 AM 86.0 °F 92.2 °F 72.0 °F 63% 30.10 in 10.0 mi SSW 6.9 mph - N/A   Clear
11:53 AM 87.1 °F 93.6 °F 72.0 °F 61% 30.10 in 10.0 mi Calm Calm - N/A   Clear
12:53 PM 89.1 °F 96.0 °F 72.0 °F 57% 30.09 in 10.0 mi South 4.6 mph - N/A   Clear
1:53 PM 89.1 °F 94.1 °F 70.0 °F 53% 30.07 in 10.0 mi SSE 4.6 mph - N/A   Partly Cloudy
2:53 PM 90.0 °F 93.6 °F 68.0 °F 48% 30.04 in 10.0 mi SE 4.6 mph - N/A   Clear
3:53 PM 91.0 °F 97.6 °F 71.1 °F 52% 30.03 in 10.0 mi SSE 6.9 mph - N/A   Scattered Clouds
4:53 PM 89.1 °F 95.0 °F 71.1 °F 55% 30.02 in 10.0 mi SE 5.8 mph - N/A   Scattered Clouds
5:53 PM 89.1 °F 94.1 °F 70.0 °F 53% 29.99 in 10.0 mi SE 9.2 mph - N/A   Clear
6:53 PM 88.0 °F 95.6 °F 73.0 °F 61% 29.98 in 10.0 mi ESE 6.9 mph - N/A   Clear
7:53 PM 84.9 °F 91.4 °F 73.0 °F 67% 29.98 in 10.0 mi SE 6.9 mph - N/A   Clear
8:53 PM 80.1 °F 84.5 °F 73.9 °F 81% 29.99 in 10.0 mi East 3.5 mph - N/A   Clear
9:53 PM 79.0 °F - 73.0 °F 82% 30.00 in 10.0 mi East 4.6 mph - N/A   Clear
10:53 PM 77.0 °F - 73.0 °F 88% 30.01 in 9.0 mi East 3.5 mph - N/A   Clear
11:53 PM 75.9 °F - 72.0 °F 87% 30.02 in 10.0 mi Calm Calm - N/A   Clear